ARIANE 2 DEB, 28565

Orbit data source: Space-Track

ARIANE 2 DEB, 28565 is space debris in HEO originally from a launch on Fri, 27 Jan 1989 UTC launched from the French Guiana (FRGUI). Debris objects in space refer to the collection of defunct objects orbiting the Earth. Examples of debris include non-operational satellites, rocket bodies, and fragments generated from explosions, collisions, or faulty payload assembly.

Loading next visibility...
Identifier
28565, 1989-006AG
Orbit
HEO
Country
Flag of FRFR
Related business
Manufacturer
EADS/LV
Mission
Spacecraft
Bus & Motor
Unknown
Mass
Unknown
Launch date (UTC)
1989-01-27 (37 years ago)
Launch vehicle
Unknown
Launch site
French Guiana (FRGUI)
Object type
Payload
Rocket body
Debris
Shape & HBR
Unknown shape, 0.3 m
Radar Cross Section
Medium (>0.1 m² and <1 m²)

Expand to show TLE details & history
Last TLE update: 1 day ago

TLE from 1 day ago
0 ARIANE 2 DEB
1 28565U 89006AG  26118.07503600  .00000049  00000-0  11862-2 0  9991
2 28565   8.6100 327.5886 7086357 294.1617   9.4807  2.39491323189404
Epoch: 2026-04-28T01:48Z
TLE epoch observation values (Epoch: 2026-04-28T01:48:03.110Z)
Latitude
0.0004°
Longitude
84.3583°
Altitude
2,731.153 km
Speed
8.403 km/s
True Right ascension
21h 49m 42s
True Declination
0° 00' 01"
Sunlit
Object was in daylight at epoch
Visualization orbit readout
Latitude
Unknown
Longitude
Unknown
Altitude
Unknown
Speed
Unknown
Apparent Right ascension
Unknown
Apparent Declination
Unknown
Sunlit
N/A
Visualization observer readout
Local Sidereal Time
14:28:51
Azimuth
Unknown
Elevation
Unknown
Doppler factor
Unknown
Orbital elements
Apogee altitude
33,951.059 km
Perigee altitude
498.98 km
Semi-major axis
23,603.157 km
Eccentricity
0.70864
Inclination
8.61°
RAAN
327.5886°
Arg. of periapsis
294.1617°
True anomaly
64.91488°
Mean anomaly
9.4807°
Eccentric anomaly
29.43212°
Mean motion
0.59853 °/min
Orbital period
601.47 mins
BSTAR
0.0011862
Loading maneuver chart data...
Computing Atmospheric mass density...
Loading historical data...
Loading historical data...
Loading historical data...
Loading historical data...
Loading historical data...
Loading historical data...
Loading historical data...

Documentation

Showing up to 5 results
|